PHFWA TNCB-TNCC

Flight info

Callsign PHFWA
Flight time 0h 34m
Altitude 4000
Route PJB DCT PJG
Aircraft C172/L-SFG/C

Departure

Time 2026-04-22 12:56
Airport Flamingo International Airport (TNCB)

Arrival

Time 2026-04-22 13:30
Airport Hato International Airport (TNCC)
Time Latitude Longitude Altitude Speed Heading
2026-04-22 12:51 12.13237 -68.27990 13 ft 0 kts 89°
2026-04-22 12:54 12.13237 -68.27989 13 ft 0 kts 83°
2026-04-22 12:54 12.13201 -68.27959 13 ft 15 kts 181°
2026-04-22 12:54 12.13162 -68.27963 13 ft 0 kts 171°
2026-04-22 12:55 12.13115 -68.27936 14 ft 6 kts 90°
2026-04-22 12:55 12.13116 -68.27922 14 ft 11 kts 90°
2026-04-22 12:55 12.13112 -68.27689 14 ft 56 kts 90°
2026-04-22 12:55 12.13074 -68.27258 204 ft 60 kts 98°
2026-04-22 12:56 12.13018 -68.26815 372 ft 65 kts 97°
2026-04-22 12:56 12.12993 -68.26360 549 ft 69 kts 95°
2026-04-22 12:56 12.12926 -68.25901 803 ft 60 kts 78°
2026-04-22 12:56 12.13314 -68.25670 971 ft 74 kts
2026-04-22 12:57 12.13632 -68.25839 1112 ft 78 kts 326°
2026-04-22 12:57 12.13943 -68.26185 1198 ft 89 kts 307°
2026-04-22 12:57 12.14185 -68.26742 1418 ft 86 kts 284°
2026-04-22 12:57 12.14004 -68.27397 1392 ft 111 kts 253°
2026-04-22 12:58 12.13868 -68.28174 1531 ft 105 kts 266°
2026-04-22 12:58 12.13850 -68.28857 1716 ft 102 kts 274°
2026-04-22 12:58 12.13917 -68.29570 1909 ft 93 kts 284°
2026-04-22 12:58 12.13989 -68.30215 2070 ft 95 kts 284°
2026-04-22 12:59 12.14163 -68.30913 2217 ft 93 kts 294°
2026-04-22 12:59 12.14397 -68.31540 2321 ft 100 kts 293°
2026-04-22 12:59 12.14571 -68.32210 2460 ft 103 kts 277°
2026-04-22 12:59 12.14599 -68.33025 2390 ft 119 kts 281°
2026-04-22 13:00 12.14870 -68.33846 2147 ft 138 kts 297°
2026-04-22 13:00 12.15112 -68.34662 2558 ft 84 kts 290°
2026-04-22 13:00 12.15339 -68.35259 2507 ft 111 kts 302°
2026-04-22 13:00 12.15604 -68.35886 2824 ft 91 kts 275°
2026-04-22 13:01 12.15375 -68.36538 3018 ft 84 kts 229°
2026-04-22 13:01 12.15082 -68.37083 2955 ft 112 kts 289°
2026-04-22 13:01 12.15638 -68.37632 2876 ft 120 kts 308°
2026-04-22 13:01 12.15795 -68.38372 3133 ft 106 kts 273°
2026-04-22 13:02 12.15958 -68.39106 3342 ft 92 kts 282°
2026-04-22 13:02 12.15852 -68.39702 3472 ft 99 kts 266°
2026-04-22 13:02 12.16083 -68.40344 3666 ft 84 kts 309°
2026-04-22 13:02 12.16406 -68.40849 3751 ft 93 kts 321°
2026-04-22 13:03 12.16957 -68.41183 3865 ft 88 kts 353°
2026-04-22 13:03 12.17282 -68.41687 3676 ft 131 kts 260°
2026-04-22 13:03 12.17216 -68.42439 4121 ft 89 kts 273°
2026-04-22 13:03 12.17166 -68.43081 4258 ft 92 kts 259°
2026-04-22 13:04 12.17197 -68.43695 4294 ft 106 kts 291°
2026-04-22 13:04 12.17685 -68.44328 4301 ft 106 kts 292°
2026-04-22 13:04 12.17612 -68.45075 4461 ft 101 kts 261°
2026-04-22 13:04 12.17595 -68.45871 4439 ft 110 kts 278°
2026-04-22 13:05 12.17787 -68.46623 4531 ft 106 kts 285°
2026-04-22 13:05 12.17794 -68.47353 4688 ft 99 kts 272°
2026-04-22 13:05 12.18023 -68.48001 4697 ft 105 kts 304°
2026-04-22 13:05 12.18486 -68.48613 4615 ft 112 kts 324°
2026-04-22 13:06 12.18811 -68.49317 4514 ft 122 kts 267°
2026-04-22 13:06 12.18604 -68.50066 4667 ft 105 kts 245°
2026-04-22 13:06 12.18354 -68.50696 4822 ft 92 kts 257°
2026-04-22 13:06 12.18448 -68.51358 4820 ft 94 kts 308°
2026-04-22 13:07 12.18833 -68.51862 4848 ft 96 kts 282°
2026-04-22 13:07 12.18638 -68.52584 4741 ft 106 kts 265°
2026-04-22 13:07 12.18940 -68.53300 4613 ft 107 kts 314°
2026-04-22 13:07 12.19208 -68.53909 4733 ft 91 kts 299°
2026-04-22 13:08 12.19659 -68.54391 4672 ft 98 kts 309°
2026-04-22 13:08 12.19794 -68.55170 4463 ft 116 kts 286°
2026-04-22 13:08 12.20054 -68.55869 4531 ft 103 kts 297°
2026-04-22 13:08 12.20178 -68.56581 4564 ft 100 kts 269°
2026-04-22 13:09 12.20123 -68.57267 4606 ft 95 kts 268°
2026-04-22 13:09 12.20106 -68.57954 4601 ft 97 kts 263°
2026-04-22 13:09 12.19976 -68.58633 4601 ft 97 kts 261°
2026-04-22 13:09 12.19871 -68.59308 4611 ft 95 kts 255°
2026-04-22 13:10 12.19474 -68.59848 4538 ft 101 kts 204°
2026-04-22 13:10 12.18819 -68.59805 4585 ft 81 kts 158°
2026-04-22 13:10 12.18390 -68.60201 4204 ft 125 kts 260°
2026-04-22 13:10 12.18300 -68.60979 4287 ft 108 kts 264°
2026-04-22 13:11 12.18309 -68.61738 4365 ft 87 kts 278°
2026-04-22 13:11 12.18496 -68.62348 4267 ft 99 kts 299°
2026-04-22 13:11 12.18696 -68.62911 4396 ft 87 kts 285°
2026-04-22 13:11 12.18708 -68.63597 4356 ft 93 kts 258°
2026-04-22 13:12 12.18521 -68.64272 4288 ft 102 kts 254°
2026-04-22 13:12 12.18233 -68.64889 4336 ft 96 kts 235°
2026-04-22 13:12 12.17901 -68.65489 4310 ft 95 kts 238°
2026-04-22 13:12 12.17526 -68.66054 4170 ft 99 kts 239°
2026-04-22 13:13 12.17277 -68.66695 4115 ft 92 kts 250°
2026-04-22 13:13 12.17148 -68.67358 3938 ft 101 kts 274°
2026-04-22 13:13 12.17314 -68.68004 3886 ft 90 kts 302°
2026-04-22 13:13 12.17625 -68.68571 3767 ft 93 kts 303°
2026-04-22 13:14 12.17881 -68.69171 3676 ft 93 kts 289°
2026-04-22 13:14 12.18019 -68.69830 3559 ft 96 kts 276°
2026-04-22 13:14 12.17872 -68.70497 3466 ft 95 kts 247°
2026-04-22 13:14 12.17681 -68.71145 3342 ft 98 kts 268°
2026-04-22 13:15 12.17685 -68.71306 3299 ft 99 kts 281°
2026-04-22 13:15 12.17729 -68.71486 3251 ft 99 kts 295°
2026-04-22 13:15 12.17738 -68.71511 3246 ft 99 kts 297°
2026-04-22 13:15 12.17907 -68.71830 3242 ft 88 kts 314°
2026-04-22 13:16 12.18410 -68.72154 3275 ft 79 kts 355°
2026-04-22 13:16 12.18958 -68.72362 3181 ft 101 kts 328°
2026-04-22 13:16 12.19318 -68.73017 2991 ft 124 kts 271°
2026-04-22 13:16 12.19098 -68.73777 3101 ft 107 kts 229°
2026-04-22 13:17 12.18905 -68.74480 3131 ft 105 kts 286°
2026-04-22 13:17 12.18945 -68.75168 3234 ft 97 kts 257°
2026-04-22 13:17 12.18988 -68.75895 3179 ft 102 kts 295°
2026-04-22 13:17 12.19296 -68.76494 3164 ft 97 kts 310°
2026-04-22 13:18 12.19766 -68.77006 3083 ft 97 kts 333°
2026-04-22 13:18 12.20327 -68.77517 2842 ft 123 kts 284°
2026-04-22 13:18 12.20091 -68.78302 2935 ft 99 kts 241°
2026-04-22 13:18 12.19746 -68.79009 2707 ft 119 kts 219°
2026-04-22 13:19 12.19019 -68.79542 2286 ft 137 kts 212°
2026-04-22 13:19 12.18605 -68.80380 1869 ft 153 kts 264°
2026-04-22 13:19 12.18390 -68.81296 1966 ft 114 kts 260°
2026-04-22 13:19 12.18245 -68.82063 1901 ft 109 kts 262°
2026-04-22 13:20 12.18127 -68.82787 1794 ft 102 kts 269°
2026-04-22 13:20 12.18194 -68.83487 1678 ft 98 kts 275°
2026-04-22 13:20 12.18140 -68.84195 1523 ft 98 kts 272°
2026-04-22 13:20 12.18128 -68.84881 1395 ft 97 kts 255°
2026-04-22 13:21 12.17923 -68.85535 1275 ft 95 kts 257°
2026-04-22 13:21 12.17881 -68.86202 1165 ft 92 kts 273°
2026-04-22 13:21 12.17952 -68.86860 1056 ft 92 kts 277°
2026-04-22 13:21 12.18030 -68.87495 993 ft 90 kts 283°
2026-04-22 13:22 12.18112 -68.88124 957 ft 89 kts 283°
2026-04-22 13:22 12.18220 -68.88761 907 ft 89 kts 282°
2026-04-22 13:22 12.18296 -68.89384 854 ft 91 kts 278°
2026-04-22 13:22 12.18363 -68.90063 748 ft 93 kts 274°
2026-04-22 13:23 12.18467 -68.90697 644 ft 93 kts 290°
2026-04-22 13:23 12.18717 -68.91367 559 ft 106 kts 297°
2026-04-22 13:23 12.18958 -68.91994 630 ft 93 kts 293°
2026-04-22 13:23 12.19153 -68.92651 656 ft 94 kts 284°
2026-04-22 13:24 12.19219 -68.93342 643 ft 100 kts 269°
2026-04-22 13:24 12.19309 -68.94012 762 ft 88 kts 283°
2026-04-22 13:24 12.19455 -68.94656 721 ft 100 kts 288°
2026-04-22 13:24 12.19656 -68.95315 742 ft 99 kts 296°
2026-04-22 13:25 12.19943 -68.95958 729 ft 101 kts 294°
2026-04-22 13:25 12.20209 -68.96621 662 ft 95 kts 298°
2026-04-22 13:25 12.20510 -68.97192 627 ft 87 kts 301°
2026-04-22 13:25 12.20826 -68.97755 510 ft 90 kts 302°
2026-04-22 13:26 12.21027 -68.98347 429 ft 93 kts 280°
2026-04-22 13:26 12.21062 -68.98997 373 ft 88 kts 269°
2026-04-22 13:26 12.21024 -68.99641 399 ft 86 kts 261°
2026-04-22 13:26 12.20936 -69.00243 517 ft 84 kts 256°
2026-04-22 13:27 12.20774 -69.00845 616 ft 85 kts 247°
2026-04-22 13:27 12.20431 -69.01356 710 ft 84 kts 216°
2026-04-22 13:27 12.19919 -69.01489 790 ft 76 kts 150°
2026-04-22 13:27 12.19704 -69.01074 763 ft 79 kts 95°
2026-04-22 13:28 12.19695 -69.00558 779 ft 77 kts 91°
2026-04-22 13:28 12.19692 -69.00033 681 ft 84 kts 90°
2026-04-22 13:28 12.19615 -68.99496 682 ft 79 kts 103°
2026-04-22 13:28 12.19486 -68.99040 724 ft 56 kts 101°
2026-04-22 13:29 12.19420 -68.98607 499 ft 60 kts 94°
2026-04-22 13:29 12.19347 -68.98210 345 ft 59 kts 98°
2026-04-22 13:29 12.19280 -68.97803 186 ft 65 kts 109°
2026-04-22 13:29 12.19204 -68.97430 118 ft 54 kts 99°
2026-04-22 13:30 12.19133 -68.97094 62 ft 52 kts 98°
2026-04-22 13:30 12.19063 -68.96757 57 ft 55 kts 100°
2026-04-22 13:30 12.18990 -68.96425 41 ft 46 kts 104°
2026-04-22 13:30 12.18944 -68.96181 39 ft 31 kts 101°
2026-04-22 13:31 12.18903 -68.96021 38 ft 20 kts 105°
2026-04-22 13:31 12.18848 -68.95933 39 ft 14 kts 158°
2026-04-22 13:31 12.18788 -68.95935 41 ft 0 kts 203°
2026-04-22 13:32 12.18784 -68.95937 41 ft 6 kts 190°
2026-04-22 13:32 12.18711 -68.95908 44 ft 20 kts 112°
2026-04-22 13:32 12.18684 -68.95808 43 ft 17 kts 118°
2026-04-22 13:32 12.18645 -68.95659 42 ft 28 kts 101°
2026-04-22 13:33 12.18614 -68.95504 43 ft 13 kts 107°
2026-04-22 13:33 12.18583 -68.95465 43 ft 4 kts 215°
2026-04-22 13:33 12.18557 -68.95513 45 ft 9 kts 235°
2026-04-22 13:33 12.18536 -68.95521 46 ft 0 kts 104°